Pikeville, NC

12:17 PM EST on February 09, 2016 (GMT -0500)
Goldsboro-Wayne Municipal

Weather History for KGWW - February, 2013

Change the Weather History Date:

Thursday, February 14, 2013

  Actual Average (KGSB) Record (KGSB)
Temperature  
Mean Temperature 41 °F -  
Max Temperature 50 °F 55 °F 70 °F (2011)
Min Temperature 32 °F 36 °F 22 °F (2015)
Degree Days  
Heating Degree Days 24    
Moisture  
Dew Point 36 °F    
Average Humidity 80    
Maximum Humidity 100    
Minimum Humidity 57    
Precipitation  
Precipitation 0.00 in - - ()
Sea Level Pressure  
Sea Level Pressure 30.01 in    
Wind  
Wind Speed 4 mph (NW)    
Max Wind Speed 10 mph    
Max Gust Speed 21 mph    
Visibility 9 miles    
Events      
Averages and records for this station are not official NWS values.
T = Trace of Precipitation, MM = Missing Value Source: NWS Daily Summary

Daily Weather History Graph

Daily Weather History Graph

Search for Another Location

Airport or City:

Trip Planner

Search our weather history database for the weather conditions in past years. The results will help you decide how hot, cold, wet, or windy it might be!

Date:

Astronomy

Feb. 14, 2013 Rise Set
Actual Time 6:59 AM EST 5:53 PM EST
Civil Twilight 6:33 AM EST 6:19 PM EST
Nautical Twilight 6:03 AM EST 6:49 PM EST
Astronomical Twilight 5:33 AM EST 7:18 PM EST
Moon 9:11 AM EST (2/14) 10:41 PM EST (2/14)
Length of Visible Light 11h 46m
Length of Day
10h 54m
Waxing Crescent, 21% of the Moon is Illuminated
Feb 14
Waxing Crescent
Feb 17
First Quarter
Feb 25
Full
Mar 4
Last Quarter
Mar 11
New

Hourly Weather History & Observations

Time (EST) Temp. Windchill Dew Point Humidity Pressure Visibility Wind Dir Wind Speed Gust Speed Precip Events Conditions
12:15 AM 48.0 °F - 43.2 °F 83% 29.81 in 10.0 mi NW 9.2 mph 19.6 mph N/A   Clear
12:35 AM 47.5 °F - 42.8 °F 84% 29.83 in 10.0 mi NW 10.4 mph - N/A   Clear
12:55 AM 46.8 °F - 38.8 °F 74% 29.85 in 10.0 mi NW 8.1 mph 20.7 mph N/A   Clear
1:15 AM 45.9 °F 40.8 °F 36.5 °F 70% 29.85 in 10.0 mi NNW 10.4 mph - N/A   Clear
1:35 AM 45.5 °F 43.2 °F 35.6 °F 68% 29.86 in 10.0 mi NW 4.6 mph - N/A   Clear
1:55 AM 44.4 °F 40.5 °F 35.6 °F 71% 29.87 in 10.0 mi WNW 6.9 mph - N/A   Clear
2:15 AM 44.1 °F 40.1 °F 35.2 °F 71% 29.87 in 10.0 mi NW 6.9 mph - N/A   Clear
2:35 AM 43.3 °F 39.9 °F 35.1 °F 73% 29.87 in 10.0 mi NW 5.8 mph - N/A   Clear
2:55 AM 43.0 °F 39.5 °F 34.7 °F 73% 29.88 in 10.0 mi NW 5.8 mph - N/A   Clear
3:15 AM 42.4 °F 40.7 °F 34.7 °F 74% 29.88 in 10.0 mi NW 3.5 mph - N/A   Clear
3:35 AM 41.9 °F 39.0 °F 34.7 °F 76% 29.89 in 10.0 mi WNW 4.6 mph - N/A   Clear
3:55 AM 41.4 °F 39.4 °F 34.3 °F 76% 29.90 in 10.0 mi WNW 3.5 mph - N/A   Clear
4:15 AM 41.0 °F 38.0 °F 34.2 °F 77% 29.92 in 10.0 mi West 4.6 mph - N/A   Clear
4:55 AM 40.1 °F - 33.8 °F 78% 29.94 in 10.0 mi Calm Calm - N/A   Clear
5:15 AM 38.5 °F - 34.0 °F 84% 29.95 in 10.0 mi Calm Calm - N/A   Clear
5:35 AM 38.5 °F - 33.6 °F 83% 29.96 in 10.0 mi Calm Calm - N/A   Clear
5:55 AM 34.9 °F - 32.4 °F 91% 29.97 in 10.0 mi Calm Calm - N/A   Clear
6:15 AM 34.2 °F - 32.9 °F 95% 29.98 in 10.0 mi Calm Calm - N/A   Clear
6:35 AM 33.4 °F - 32.9 °F 98% 29.99 in 10.0 mi Calm Calm - N/A   Clear
6:55 AM 32.9 °F - 32.4 °F 98% 29.99 in 10.0 mi Calm Calm - N/A   Clear
7:15 AM 32.4 °F - 32.0 °F 99% 30.00 in 10.0 mi Calm Calm - N/A   Clear
7:35 AM 32.4 °F - 32.2 °F 99% 30.00 in 7.0 mi Calm Calm - N/A   Clear
7:55 AM 33.3 °F - 33.3 °F 100% 30.00 in 7.0 mi Calm Calm - N/A   Clear
8:15 AM 37.8 °F 35.3 °F 37.6 °F 99% 30.02 in 10.0 mi NNW 3.5 mph - N/A   Clear
8:35 AM 41.0 °F - 36.7 °F 85% 30.03 in 10.0 mi Calm Calm - N/A   Clear
8:55 AM 42.6 °F 40.9 °F 35.6 °F 76% 30.05 in 10.0 mi NNW 3.5 mph - N/A   Clear
9:15 AM 43.3 °F 39.9 °F 35.4 °F 74% 30.06 in 10.0 mi NNW 5.8 mph - N/A   Clear
9:35 AM 42.8 °F 41.1 °F 35.4 °F 75% 30.05 in 10.0 mi North 3.5 mph - N/A   Clear
9:55 AM 43.3 °F 39.2 °F 35.6 °F 74% 30.05 in 10.0 mi North 6.9 mph - N/A   Clear
10:15 AM 44.2 °F 41.0 °F 36.0 °F 73% 30.04 in 10.0 mi NNE 5.8 mph - N/A   Clear
10:35 AM 45.1 °F 41.4 °F 36.1 °F 71% 30.05 in 10.0 mi NNE 6.9 mph - N/A   Clear
10:55 AM 44.8 °F 43.3 °F 36.3 °F 72% 30.05 in 10.0 mi North 3.5 mph - N/A   Clear
11:15 AM 45.5 °F 44.2 °F 36.7 °F 71% 30.06 in 10.0 mi NE 3.5 mph - N/A   Clear
11:35 AM 45.7 °F 44.4 °F 37.2 °F 72% 30.06 in 10.0 mi NNE 3.5 mph - N/A   Clear
11:55 AM 46.4 °F - 36.7 °F 69% 30.06 in 10.0 mi Calm Calm - N/A   Scattered Clouds
12:15 PM 46.8 °F - 36.5 °F 67% 30.06 in 10.0 mi Calm Calm - N/A   Scattered Clouds
12:35 PM 46.9 °F - 36.3 °F 67% 30.07 in 10.0 mi Calm Calm - N/A   Clear
12:55 PM 47.8 °F - 35.8 °F 63% 30.05 in 10.0 mi Calm Calm - N/A   Clear
1:15 PM 49.3 °F - 36.9 °F 62% 30.04 in 10.0 mi Calm Calm - N/A   Clear
1:35 PM 48.9 °F - 36.1 °F 61% 30.04 in 10.0 mi Calm Calm - N/A   Scattered Clouds
1:55 PM 48.4 °F - 35.8 °F 62% 30.03 in 10.0 mi Calm Calm - N/A   Clear
2:15 PM 49.3 °F - 35.4 °F 59% 30.02 in 10.0 mi WSW 3.5 mph - N/A   Clear
2:35 PM 49.3 °F - 35.6 °F 59% 30.02 in 10.0 mi Calm Calm - N/A   Clear
3:15 PM 49.3 °F - 35.4 °F 59% 30.02 in 10.0 mi Calm Calm - N/A   Clear
3:35 PM 50.0 °F - 36.3 °F 59% 30.02 in 10.0 mi SSW 3.5 mph - N/A   Clear
3:55 PM 49.3 °F - 35.4 °F 59% 30.02 in 10.0 mi WSW 4.6 mph - N/A   Clear
4:15 PM 49.5 °F - 34.9 °F 57% 30.02 in 10.0 mi West 3.5 mph - N/A   Clear
4:35 PM 49.1 °F - 35.6 °F 60% 30.02 in 10.0 mi Calm Calm - N/A   Clear
4:55 PM 48.7 °F - 34.7 °F 58% 30.03 in 10.0 mi Calm Calm - N/A   Clear
5:15 PM 48.2 °F - 36.1 °F 63% 30.03 in 10.0 mi Calm Calm - N/A   Clear
5:35 PM 46.8 °F - 39.0 °F 74% 30.03 in 10.0 mi Calm Calm - N/A   Clear
6:15 PM 43.5 °F - 39.6 °F 86% 30.03 in 10.0 mi Calm Calm - N/A   Clear
6:35 PM 42.1 °F 40.2 °F 39.0 °F 89% 30.02 in 10.0 mi SE 3.5 mph - N/A   Clear
6:55 PM 41.4 °F - 39.2 °F 92% 30.03 in 10.0 mi Calm Calm - N/A   Clear
7:15 PM 39.6 °F - 38.3 °F 95% 30.04 in 10.0 mi Calm Calm - N/A   Clear
7:35 PM 39.7 °F - 38.8 °F 97% 30.06 in 10.0 mi Calm Calm - N/A   Clear
7:55 PM 39.0 °F - 37.9 °F 96% 30.07 in 10.0 mi Calm Calm - N/A   Clear
8:15 PM 37.6 °F 35.1 °F 36.9 °F 97% 30.08 in 10.0 mi SE 3.5 mph - N/A   Clear
8:35 PM 36.9 °F - 36.5 °F 99% 30.08 in 10.0 mi Calm Calm - N/A   Clear
8:55 PM 37.8 °F - 37.4 °F 99% 30.07 in 10.0 mi Calm Calm - N/A   Clear
9:15 PM 36.9 °F - 36.5 °F 99% 30.07 in 7.0 mi Calm Calm - N/A   Clear
9:35 PM 36.5 °F - 36.3 °F 99% 30.08 in 7.0 mi Calm Calm - N/A   Clear
9:55 PM 35.6 °F - 35.4 °F 99% 30.09 in 7.0 mi Calm Calm - N/A   Clear
10:15 PM 35.4 °F - 35.4 °F 100% 30.09 in 7.0 mi Calm Calm - N/A   Clear
10:35 PM 34.7 °F - 34.5 °F 99% 30.08 in 3.0 mi Calm Calm - N/A   Clear
10:55 PM 34.9 °F - 34.9 °F 100% 30.08 in 5.0 mi Calm Calm - N/A   Clear
11:15 PM 33.8 °F - 33.8 °F 100% 30.08 in 3.0 mi Calm Calm - N/A   Clear
11:35 PM 33.8 °F - 33.8 °F 100% 30.07 in 4.0 mi Calm Calm - N/A   Clear
11:55 PM 33.8 °F - 33.8 °F 100% 30.08 in 5.0 mi Calm Calm - N/A   Clear